Location: Limoges
(45.8500°N, 1.2500°E)
Time: 02:25:20
(UTC+02:00)

ISS - Pass Details

Date: 24 September 2021
Orbit: 417 x 423 km, 51.6° (Epoch: 21 October)

Event Time Altitude Azimuth Distance (km) Brightness Sun altitude
Rises 20:52:09 0° 275° (W) 2,361 2.1 -11.9°
Reaches altitude 10° 20:54:23 10° 286° (WNW) 1,499 0.6 -12.2°
Maximum altitude 20:57:27 32° 351° (N) 750 -2.3 -12.8°
Enters shadow 21:00:02 13° 52° (NE) 1,327 -1.6 -13.2°
